Temp
8 8 8 8 8 8 9 10 10 10 10 10 10 10 11 11 11 11 11 11 10 10 9 9 8 8 8 8 8 8 8 8 7 6 7 7 7 7 7 7 6 6 5 5 6 6 6 7 7
8 8 7 7 7 7 9 10 10 10 10 10 10 10 10 10 11 11 11 10 10 9 8 8 8 8 8 8 8 7 8 7 7 6 6 6 7 7 7 7 6 6 6 5 5 6 6 7 7
7 7 7 6 7 7 8 10 9 9 9 10 9 10 9 10 10 10 10 10 10 9 8 8 8 8 8 8 7 7 7 7 7 6 6 6 6 6 7 7 7 6 6 6 6 6 6 7 6
7 7 6 6 7 8 10 9 9 9 9 8 8 9 9 10 10 10 10 10 9 9 8 8 8 8 8 8 7 7 6 6 6 6 5 6 6 6 6 6 6 6 6 6 6 6 6 6 6
6 6 6 6 7 7 9 9 9 9 9 9 8 9 9 10 10 10 10 9 9 8 8 8 7 7 7 7 7 7 6 6 6 5 5 5 6 6 6 6 6 5 6 6 7 6 6 6 6
6 5 5 5 6 7 8 9 8 8 9 8 8 8 9 10 10 9 9 9 9 8 8 7 7 7 7 7 7 6 6 5 5 5 4 5 5 5 5 5 5 4 5 6 6 6 6 6 6
6 6 6 6 5 6 8 8 8 8 8 7 8 8 9 10 9 9 9 9 8 7 7 7 7 7 7 7 6 6 5 5 5 4 4 4 4 4 3 4 4 4 5 5 5 6 6 6 5
5 5 4 5 4 6 8 7 7 7 7 7 7 8 9 9 9 9 9 8 8 8 7 7 7 7 7 7 7 6 5 4 4 4 4 4 4 2 3 3 3 4 4 4 5 5 5 5 5
5 4 3 4 5 6 6 7 7 7 7 7 7 7 7 8 8 9 9 8 8 8 7 7 7 7 7 7 7 6 5 4 4 4 4 4 3 4 2 3 3 2 3 3 4 4 5 5 5
4 4 4 4 5 5 5 6 7 6 6 7 7 6 7 7 8 9 8 8 8 8 7 7 7 7 7 7 7 7 5 5 4 4 4 4 3 3 2 2 2 2 2 2 3 4 4 5 5
4 4 4 4 4 4 4 6 6 6 5 7 7 7 6 7 8 8 8 8 8 8 7 7 7 7 7 7 7 6 6 5 5 5 4 3 3 3 3 2 2 2 2 1 3 3 4 4 5
4 4 5 4 4 4 4 5 5 5 5 7 7 7 7 7 8 8 8 8 8 7 7 7 7 7 7 7 7 7 6 5 5 5 5 4 3 3 3 1 2 2 1 2 3 3 4 4 4
3 4 3 3 3 4 4 4 5 5 6 7 6 7 7 7 8 8 8 7 7 7 7 7 7 7 7 6 6 6 6 5 5 4 4 3 3 3 3 2 2 2 1 2 3 3 3 3 3
3 3 3 3 4 4 4 4 4 6 7 7 6 7 7 8 8 8 8 8 8 7 7 7 7 7 6 6 6 6 6 5 5 4 3 3 3 3 2 2 1 2 1 2 3 3 3 3 3
2 2 2 3 4 4 4 3 4 5 6 5 6 7 7 7 8 8 8 8 7 7 7 7 7 6 6 6 6 5 5 5 4 4 3 3 3 2 2 2 2 2 2 2 2 2 2 2 2
1 1 2 3 3 4 3 2 5 5 4 5 6 7 7 7 8 8 8 8 7 7 7 7 6 6 6 6 6 6 5 4 4 3 3 3 2 2 2 2 1 1 1 0 1 2 2 2 2
0 1 1 2 3 2 2 2 4 4 4 5 6 6 7 7 8 8 8 8 7 7 7 6 6 6 6 6 6 5 5 4 3 3 3 3 3 2 2 2 1 1 1 1 1 1 2 2 2
1 0 0 0 1 1 2 2 2 3 3 4 5 5 6 7 8 8 8 8 8 7 7 7 6 6 6 6 5 5 5 3 3 3 3 2 2 2 2 2 1 1 1 1 2 2 1 1 1
-1 -0 -1 0 1 1 1 1 2 3 3 3 5 5 6 7 7 8 8 8 8 7 7 7 6 6 6 5 5 5 4 3 3 3 3 2 2 2 2 2 2 1 1 1 2 2 1 1 1
-1 -1 -0 -0 0 -0 0 0 1 2 3 4 4 5 6 6 7 7 8 8 8 8 7 7 6 6 6 5 5 5 4 3 2 3 2 2 1 1 2 2 2 1 0 1 1 2 1 1 1
-1 -1 -0 -1 -0 -0 -1 0 1 3 3 4 4 5 6 6 7 8 8 8 8 8 8 7 6 6 6 5 5 4 3 3 3 2 2 2 1 1 1 1 2 1 1 1 2 1 2 2 2
-1 -1 -1 -2 -2 -1 0 2 1 2 3 4 5 5 6 6 7 8 8 8 8 8 8 7 6 6 5 5 5 4 3 2 2 2 2 2 1 1 2 2 1 0 1 1 1 1 1 1 1
-1 -1 -2 -2 -2 -2 -1 -0 1 2 3 5 5 6 6 7 7 8 8 9 8 8 8 7 6 6 5 5 5 4 4 3 2 2 2 2 1 1 1 1 1 1 1 1 1 1 0 -0 -1
-2 -1 -1 -2 -2 -1 -0 0 1 3 4 5 6 6 6 7 7 8 9 9 8 8 7 7 6 6 5 5 5 5 4 3 2 2 2 2 2 1 2 1 1 1 1 0 0 0 -0 -0 -0
-2 -3 -1 -1 -1 1 1 0 1 2 3 4 5 6 6 7 7 8 9 9 8 8 7 7 6 6 5 5 5 5 4 3 3 2 2 2 1 2 1 1 1 1 1 0 0 0 0 1 -0
-2 -2 -1 -0 0 1 1 1 2 2 3 4 5 6 6 7 7 8 8 9 9 8 8 7 6 6 5 5 5 5 5 4 3 3 2 2 2 1 1 1 1 1 1 0 0 0 0 1 0
-2 -3 -2 -2 -2 -2 1 2 2 1 2 3 5 6 7 7 7 8 8 8 8 9 8 7 6 5 5 5 5 5 5 5 4 3 3 2 2 1 1 1 1 1 1 0 0 0 0 0 0
-2 -2 -2 -3 -1 0 2 2 0 2 3 4 5 5 6 7 7 8 8 8 8 9 8 7 6 5 5 5 6 6 5 5 4 4 3 3 3 3 2 1 1 1 1 0 1 1 0 1 0
-2 -2 -3 -3 -2 0 1 0 -1 -1 -0 3 4 5 7 8 8 8 8 9 8 8 8 7 5 5 5 5 5 6 6 6 5 5 4 3 3 3 2 1 1 1 1 0 1 1 1 0 -0
-2 -2 -2 -3 -1 -2 -1 -0 -0 -1 -0 -0 2 4 6 6 8 8 8 9 9 8 7 6 5 5 5 5 5 5 5 5 5 5 5 4 3 3 2 2 1 1 0 0 -0 -0 0 0 0
Height
3124 3125 3127 3129 3133 3127 3125 3125 3124 3125 3125 3125 3125 3127 3128 3128 3130 3132 3130 3130 3131 3131 3132 3133 3134 3133 3133 3133 3133 3133 3134 3136 3138 3140 3143 3145 3147 3149 3150 3152 3154 3155 3156 3157 3159 3160 3162 3163 3165
3120 3121 3123 3124 3124 3122 3123 3121 3123 3122 3123 3123 3123 3123 3125 3126 3127 3128 3128 3128 3128 3129 3130 3131 3131 3130 3129 3129 3129 3130 3131 3133 3135 3138 3140 3142 3144 3146 3148 3150 3151 3153 3155 3156 3157 3159 3161 3162 3163
3116 3118 3120 3119 3115 3114 3117 3119 3121 3120 3120 3121 3121 3121 3122 3124 3125 3126 3126 3126 3126 3126 3126 3127 3128 3128 3126 3126 3126 3127 3128 3131 3132 3134 3137 3140 3141 3143 3145 3148 3149 3150 3152 3155 3156 3157 3159 3160 3162
3112 3113 3114 3110 3106 3111 3113 3118 3118 3118 3118 3118 3118 3118 3119 3121 3123 3123 3124 3124 3124 3124 3124 3124 3123 3124 3124 3122 3123 3124 3125 3127 3128 3130 3133 3136 3138 3140 3143 3145 3146 3148 3150 3153 3156 3156 3157 3159 3161
3107 3107 3106 3101 3101 3107 3114 3115 3116 3116 3115 3116 3116 3115 3115 3118 3119 3121 3122 3122 3122 3122 3121 3121 3120 3119 3121 3119 3119 3120 3121 3122 3124 3127 3129 3131 3133 3135 3138 3140 3143 3146 3147 3151 3153 3154 3156 3158 3161
3102 3103 3099 3095 3097 3104 3110 3111 3111 3113 3112 3112 3112 3110 3112 3115 3116 3118 3120 3120 3120 3119 3118 3118 3117 3115 3116 3117 3115 3115 3117 3117 3120 3122 3124 3126 3127 3131 3132 3136 3140 3142 3145 3148 3150 3153 3155 3157 3160
3098 3098 3093 3093 3093 3098 3105 3105 3105 3108 3108 3108 3106 3106 3109 3112 3113 3115 3117 3118 3117 3117 3116 3115 3115 3113 3111 3111 3110 3109 3110 3112 3115 3118 3119 3110 3120 3120 3125 3133 3136 3138 3142 3145 3147 3150 3153 3156 3158
3093 3092 3087 3088 3090 3093 3100 3100 3101 3102 3103 3104 3103 3102 3104 3106 3108 3110 3112 3115 3113 3114 3113 3112 3111 3110 3108 3107 3106 3106 3106 3109 3110 3112 3116 3116 3114 3119 3123 3127 3132 3133 3138 3142 3144 3148 3151 3154 3156
3087 3086 3079 3081 3087 3089 3094 3096 3096 3095 3096 3099 3099 3099 3099 3098 3102 3106 3108 3109 3110 3110 3110 3109 3107 3106 3104 3103 3103 3102 3102 3104 3106 3108 3111 3114 3117 3119 3122 3122 3127 3130 3133 3139 3142 3145 3149 3152 3154
3079 3075 3076 3079 3082 3085 3087 3090 3091 3089 3090 3093 3094 3095 3094 3094 3097 3101 3104 3105 3106 3106 3106 3105 3103 3103 3101 3100 3100 3099 3099 3101 3102 3104 3107 3111 3113 3116 3113 3117 3120 3124 3129 3136 3139 3143 3147 3150 3152
3070 3066 3072 3074 3078 3079 3080 3082 3082 3081 3081 3089 3089 3090 3089 3090 3093 3096 3099 3100 3102 3102 3102 3101 3100 3099 3097 3097 3097 3098 3096 3097 3098 3100 3102 3105 3107 3109 3111 3113 3117 3119 3122 3131 3135 3139 3144 3148 3151
3063 3065 3069 3069 3073 3073 3073 3074 3071 3073 3076 3082 3081 3083 3084 3085 3088 3092 3094 3095 3097 3097 3097 3097 3096 3096 3094 3094 3093 3092 3092 3094 3094 3096 3097 3099 3102 3105 3106 3110 3113 3117 3120 3126 3132 3137 3142 3146 3148
3059 3061 3063 3064 3065 3065 3066 3065 3066 3064 3071 3075 3075 3077 3079 3081 3084 3087 3089 3090 3092 3093 3093 3093 3092 3093 3091 3089 3088 3087 3087 3088 3089 3090 3092 3094 3097 3100 3103 3106 3110 3114 3118 3123 3130 3135 3140 3144 3147
3056 3055 3056 3056 3057 3057 3057 3059 3060 3061 3066 3066 3067 3071 3075 3076 3079 3080 3082 3085 3087 3088 3088 3088 3088 3088 3086 3085 3084 3083 3083 3082 3083 3084 3087 3090 3093 3096 3100 3101 3106 3109 3114 3121 3127 3133 3137 3141 3144
3051 3049 3049 3051 3051 3050 3053 3048 3051 3058 3059 3058 3062 3065 3069 3071 3072 3075 3079 3081 3082 3082 3083 3084 3084 3083 3082 3081 3078 3078 3077 3077 3078 3081 3082 3085 3087 3090 3092 3100 3103 3103 3111 3117 3124 3129 3133 3137 3141
3046 3046 3044 3045 3046 3046 3047 3039 3049 3052 3053 3053 3056 3059 3062 3065 3067 3070 3073 3076 3077 3077 3079 3080 3080 3079 3078 3076 3074 3073 3071 3071 3073 3076 3077 3080 3083 3085 3089 3095 3100 3101 3107 3114 3120 3126 3130 3135 3139
3042 3040 3040 3041 3044 3043 3041 3039 3044 3046 3046 3048 3050 3052 3055 3059 3061 3065 3068 3070 3071 3072 3074 3076 3076 3076 3075 3072 3071 3068 3067 3066 3069 3070 3073 3075 3071 3081 3085 3091 3095 3098 3105 3110 3117 3123 3128 3132 3137
3038 3037 3037 3037 3039 3037 3035 3034 3039 3040 3040 3041 3041 3044 3047 3051 3055 3060 3063 3064 3066 3067 3069 3072 3073 3072 3071 3068 3066 3065 3062 3063 3065 3068 3070 3073 3071 3072 3080 3087 3091 3094 3100 3107 3113 3119 3125 3129 3134
3035 3033 3032 3033 3034 3033 3029 3027 3030 3032 3033 3032 3034 3036 3040 3044 3049 3052 3056 3057 3060 3062 3064 3067 3069 3068 3067 3064 3063 3060 3059 3060 3063 3066 3068 3069 3069 3069 3075 3082 3087 3091 3097 3104 3112 3117 3121 3125 3129
3030 3029 3026 3027 3028 3028 3024 3018 3020 3022 3022 3025 3028 3030 3032 3037 3042 3046 3049 3052 3054 3057 3059 3062 3065 3065 3064 3061 3059 3057 3056 3058 3060 3063 3064 3065 3061 3063 3072 3077 3083 3088 3094 3101 3107 3113 3117 3121 3126
3026 3024 3023 3024 3022 3021 3019 3008 3008 3012 3015 3017 3021 3024 3027 3031 3035 3039 3043 3047 3049 3052 3055 3058 3061 3061 3060 3058 3056 3054 3054 3054 3057 3059 3061 3062 3060 3060 3067 3073 3078 3085 3092 3098 3103 3109 3113 3118 3122
3023 3022 3021 3021 3022 3019 3019 3005 3005 3007 3008 3010 3014 3017 3021 3025 3029 3032 3036 3040 3044 3048 3050 3054 3057 3058 3057 3055 3054 3052 3051 3053 3055 3058 3060 3060 3062 3062 3067 3072 3078 3083 3089 3093 3098 3105 3110 3115 3118
3021 3020 3019 3020 3019 3017 3016 3014 2999 3001 3001 3003 3008 3012 3016 3020 3022 3025 3030 3035 3039 3042 3047 3050 3053 3054 3054 3053 3052 3050 3049 3051 3052 3056 3058 3060 3062 3063 3067 3071 3076 3081 3086 3090 3096 3100 3104 3108 3112
3017 3018 3017 3017 3017 3012 3008 3010 2997 2996 2996 2997 2999 3004 3008 3013 3016 3019 3025 3029 3033 3038 3042 3045 3049 3050 3050 3050 3049 3048 3047 3048 3051 3053 3055 3058 3060 3062 3065 3069 3073 3076 3082 3087 3090 3095 3099 3103 3106
3015 3018 3016 3015 3014 3005 3003 3005 2996 2995 2992 2993 2995 2999 3004 3007 3012 3014 3020 3024 3028 3033 3038 3041 3045 3047 3047 3047 3046 3046 3045 3046 3048 3051 3052 3054 3056 3058 3060 3065 3069 3074 3076 3080 3085 3089 3093 3096 3100
3012 3015 3014 3009 3007 3003 3001 2997 2992 2988 2987 2989 2992 2995 3000 3003 3007 3011 3016 3020 3024 3028 3032 3036 3041 3044 3044 3044 3044 3044 3044 3045 3045 3047 3049 3049 3050 3053 3055 3060 3066 3070 3072 3076 3080 3083 3087 3091 3095
3010 3011 3012 3011 3009 3006 2997 2991 2989 2986 2985 2986 2988 2991 2995 2999 3003 3007 3011 3015 3017 3021 3026 3031 3036 3040 3041 3041 3042 3042 3043 3043 3044 3044 3045 3045 3045 3047 3051 3057 3062 3066 3069 3073 3077 3080 3082 3084 3087
3007 3009 3008 3009 3007 2998 2989 2989 2986 2982 2982 2982 2983 2987 2990 2993 2997 3002 3006 3009 3012 3016 3021 3027 3032 3036 3037 3038 3040 3041 3042 3042 3043 3043 3044 3044 3044 3045 3049 3054 3060 3063 3066 3069 3072 3074 3077 3079 3081
3005 3005 3006 3006 3005 2998 2991 2988 2986 2982 2978 2978 2979 2980 2983 2986 2990 2995 2999 3002 3006 3011 3016 3022 3027 3031 3033 3035 3037 3039 3040 3041 3042 3042 3043 3044 3045 3047 3048 3051 3056 3059 3062 3065 3068 3069 3072 3074 3077
3002 3002 3003 3004 3001 2997 2994 2989 2985 2981 2978 2978 2977 2977 2977 2980 2983 2987 2992 2996 3000 3005 3011 3017 3022 3025 3027 3031 3033 3036 3038 3039 3041 3042 3042 3043 3045 3047 3049 3051 3053 3055 3058 3060 3062 3064 3066 3068 3069
Wind_Speed
24 23 19 18 12 11 15 17 9 9 7 8 12 17 15 13 9 4 8 13 13 13 12 13 12 12 14 15 16 13 12 12 14 15 17 19 20 20 19 17 16 14 13 12 13 14 15 14 12
25 23 22 21 19 17 17 18 13 14 17 10 12 17 15 15 16 15 14 11 12 12 13 14 15 12 11 12 12 13 16 15 16 16 17 19 20 21 18 18 15 18 15 14 12 12 14 14 15
24 24 23 20 26 24 23 21 10 9 12 17 15 15 16 15 14 14 11 8 12 13 12 8 9 10 11 11 9 11 16 18 18 19 18 21 22 22 21 18 22 19 17 15 13 14 14 15 16
24 25 26 29 28 15 19 13 14 10 3 5 15 16 19 18 15 12 13 10 12 7 7 10 12 13 15 14 12 11 15 19 21 21 22 23 23 23 21 22 23 21 18 15 16 16 16 16 16
25 27 29 32 36 33 24 11 19 20 18 14 17 23 22 19 16 13 14 12 11 10 12 13 13 14 15 17 15 14 16 21 22 24 25 27 27 25 24 25 23 22 19 16 18 18 17 16 16
26 28 28 35 39 31 26 26 26 24 24 21 21 23 27 21 21 17 15 14 12 14 12 15 16 16 17 18 16 16 18 22 24 25 27 29 30 27 28 26 25 22 20 19 18 18 17 16 16
28 29 36 38 29 27 25 26 29 26 22 16 21 22 24 26 23 20 16 13 11 12 11 13 18 18 20 19 16 18 21 25 25 26 26 31 29 29 28 26 26 24 22 21 20 20 17 17 16
29 30 33 36 27 32 27 28 29 26 20 12 15 12 21 28 28 20 17 12 8 8 11 15 18 18 21 18 16 17 23 24 26 30 30 30 35 30 26 30 35 29 23 22 22 20 17 17 19
31 35 33 35 32 34 18 23 26 29 27 21 5 9 15 20 22 19 17 12 11 10 12 15 17 18 20 17 14 16 21 24 27 30 32 29 23 19 31 31 34 33 31 23 19 18 19 20 21
33 41 39 36 34 33 28 27 26 29 21 21 11 10 19 16 21 22 17 12 11 11 13 14 15 19 18 16 14 14 19 23 25 29 32 30 32 28 31 35 33 32 34 25 21 19 20 22 22
35 42 37 35 32 31 30 29 30 34 33 25 22 17 14 23 22 22 18 15 10 12 13 15 14 18 17 17 15 13 14 21 24 27 30 31 32 26 20 34 24 30 33 29 25 24 24 22 21
36 38 36 37 33 34 35 33 38 35 32 26 28 23 18 22 31 29 24 16 12 12 12 14 14 17 17 18 17 15 15 17 22 25 28 28 25 24 20 23 20 30 31 30 26 25 23 23 22
34 33 34 35 35 36 34 36 35 37 29 27 29 26 18 24 26 24 23 20 16 11 11 14 13 16 16 17 16 16 18 19 18 23 23 24 24 24 21 19 16 27 30 30 27 25 23 22 23
26 25 28 29 31 32 35 35 33 33 26 29 29 28 22 23 22 21 20 17 15 10 11 14 12 14 17 17 16 16 18 22 19 20 25 25 25 25 24 23 19 28 32 32 27 26 24 23 23
23 26 24 27 26 30 27 34 36 27 25 29 27 27 26 22 25 19 14 13 13 11 12 13 13 16 18 18 16 16 20 22 20 20 21 23 24 23 26 23 19 28 36 30 30 27 25 25 22
23 25 22 16 16 17 21 34 25 21 23 23 24 28 30 23 25 21 17 13 15 15 15 15 14 17 20 18 17 17 19 18 19 19 19 22 23 25 25 21 17 26 31 31 31 29 26 24 22
20 19 20 24 19 18 17 22 22 20 16 19 23 25 29 28 24 23 20 16 17 17 19 17 16 17 19 18 17 17 16 16 18 17 17 21 29 23 26 23 18 31 31 32 30 28 26 24 23
14 14 17 17 13 14 19 28 23 22 23 26 25 25 28 30 26 23 21 19 18 20 21 21 16 17 18 17 16 15 13 16 19 17 17 22 31 29 30 26 21 28 36 33 31 29 27 24 22
23 27 26 28 28 28 32 35 27 23 28 28 25 25 28 32 26 26 24 23 21 23 20 19 17 18 18 16 15 13 9 14 17 14 13 16 26 34 30 32 28 33 36 31 30 30 27 26 27
20 24 29 28 23 22 29 35 33 34 33 27 26 25 26 28 30 28 27 26 22 19 19 16 18 18 16 14 13 12 9 14 16 15 14 12 14 32 35 27 33 38 35 35 31 30 28 27 25
16 22 26 26 27 28 30 39 36 34 32 31 30 24 23 23 24 31 31 27 23 18 14 15 17 18 15 13 12 12 10 17 18 18 15 8 3 22 28 25 36 35 32 31 30 28 26 24 23
13 11 11 13 11 9 5 11 10 10 20 27 26 26 22 22 23 31 32 29 22 19 17 17 18 16 14 12 10 9 8 13 15 16 15 12 4 7 30 29 34 36 34 34 34 32 32 31 35
12 11 11 10 13 18 16 14 8 4 12 18 21 21 19 20 21 25 28 25 21 17 20 18 16 13 11 10 7 7 7 12 16 16 17 13 15 13 13 18 18 31 37 36 36 37 34 31 27
10 14 11 12 10 8 17 19 7 6 8 7 15 24 22 22 19 26 27 27 22 20 21 19 18 13 11 9 6 5 5 10 14 16 17 16 16 21 22 22 23 21 32 38 40 39 37 32 29
15 9 3 2 4 5 6 12 22 13 17 11 14 23 22 20 19 20 29 26 22 24 21 20 18 15 13 10 7 5 4 10 13 15 16 16 17 25 21 27 23 25 31 29 31 27 32 30 35
2 10 4 3 3 4 5 8 6 13 18 18 11 16 19 19 23 23 21 24 24 25 26 22 17 13 13 12 9 5 4 6 10 11 12 13 14 23 26 25 26 21 27 28 23 34 34 34 31
3 8 9 7 12 6 8 12 10 10 10 12 14 15 17 21 22 28 27 23 25 28 30 25 18 16 15 13 10 7 5 4 7 7 7 8 8 12 34 30 23 25 23 27 22 26 35 34 35
10 8 4 8 3 5 7 9 5 12 14 20 22 23 23 21 25 23 31 27 27 28 31 25 19 18 19 16 13 11 7 5 5 6 5 5 7 11 18 21 25 25 25 25 22 29 25 34 36
8 8 4 4 6 3 4 2 4 6 11 12 12 15 18 23 23 26 30 30 30 29 33 27 23 22 19 19 16 13 11 8 5 3 3 3 5 10 17 18 19 25 26 25 24 25 30 25 27
6 9 11 4 3 8 5 5 5 12 4 10 12 9 11 18 22 30 29 25 25 35 36 30 26 25 24 21 18 15 12 11 9 8 6 4 4 5 9 10 13 15 22 23 24 23 25 28 34
Wind_Direction
254 254 253 253 247 233 239 250 252 225 234 223 206 206 220 208 225 229 281 313 330 309 254 250 245 256 266 270 270 260 246 240 237 238 237 239 237 241 247 252 255 250 239 227 220 222 223 223 214
251 249 247 247 237 231 240 259 263 247 223 225 211 209 213 223 237 263 284 318 328 297 270 264 278 280 283 272 264 258 246 232 227 231 239 242 239 237 241 246 247 250 237 234 233 228 222 215 204
247 245 242 236 241 230 241 250 262 229 220 225 230 225 226 232 237 256 285 308 317 297 292 274 314 310 313 301 281 256 248 237 232 225 230 237 237 238 236 234 245 242 238 235 243 237 221 215 201
243 240 236 234 236 240 249 234 216 193 179 248 233 224 225 226 245 261 280 284 315 297 282 293 318 321 320 309 294 263 244 239 233 226 227 232 233 231 236 242 243 241 237 233 239 234 227 218 209
239 236 234 240 240 239 240 243 229 238 259 277 253 237 231 224 231 255 266 279 300 306 293 301 313 322 320 309 296 271 243 237 233 228 226 229 228 230 229 228 231 233 233 233 235 234 224 219 215
237 237 238 242 246 249 250 249 249 246 262 277 268 249 238 231 238 247 266 277 294 303 306 306 317 322 317 308 292 261 241 236 233 229 232 231 230 224 230 223 225 226 229 232 233 234 228 221 215
241 242 246 251 253 249 256 256 258 259 265 265 272 268 248 241 245 248 263 278 300 293 298 308 318 316 315 306 288 250 236 229 229 229 231 214 218 212 210 219 226 221 222 231 229 233 222 214 213
242 245 246 251 249 259 257 260 262 264 255 260 270 277 245 245 243 247 261 262 300 302 310 323 315 312 313 300 292 262 237 232 229 230 231 227 231 210 209 226 222 217 222 222 222 218 212 207 206
243 240 246 246 255 258 262 258 262 264 258 247 253 279 237 232 235 231 252 251 283 306 311 317 316 311 309 297 293 267 242 227 233 237 236 240 230 261 233 223 221 213 217 216 211 211 208 206 198
235 243 248 256 258 263 267 259 260 256 250 223 238 250 237 225 216 229 241 251 270 296 310 308 310 313 305 292 288 279 246 237 231 234 241 245 243 249 277 233 224 221 220 209 206 205 206 203 201
245 246 254 257 264 266 266 265 263 262 259 235 236 227 230 226 214 223 237 235 255 279 303 308 306 313 306 296 287 272 262 244 242 240 239 244 246 252 267 235 216 210 202 201 202 201 203 203 199
249 256 262 264 266 267 268 270 263 260 264 237 243 236 228 229 233 235 237 235 247 272 297 305 303 306 310 292 285 283 266 252 238 238 237 239 238 241 256 224 222 205 203 197 200 200 201 198 198
255 262 263 266 266 266 266 263 267 263 262 241 248 237 231 224 227 232 236 232 236 259 288 297 295 299 308 297 289 284 279 269 254 240 237 237 235 236 223 225 208 217 204 197 200 196 198 199 202
265 272 267 266 266 267 265 266 267 256 252 243 247 235 230 220 216 225 224 223 228 250 280 291 295 307 306 301 290 282 279 271 255 246 239 235 231 227 220 201 213 217 215 198 195 194 192 200 204
268 270 268 267 272 271 273 265 258 265 256 256 247 235 224 225 216 216 228 236 230 237 263 279 296 311 307 302 294 289 281 266 244 237 233 230 226 216 206 214 230 221 206 184 190 190 193 199 204
268 273 277 270 275 275 262 264 266 269 271 265 249 237 226 222 217 214 224 235 230 241 253 265 287 306 307 303 297 295 281 255 236 232 232 227 216 207 219 218 219 207 201 198 199 198 197 198 203
265 263 271 279 273 277 268 278 280 278 266 256 245 240 234 223 221 219 221 229 234 241 249 260 278 301 304 301 298 295 281 241 230 226 238 223 209 215 221 211 215 203 207 196 201 199 197 201 205
270 271 280 277 273 281 274 271 270 264 259 255 248 240 234 225 222 224 223 222 238 247 251 260 276 294 301 303 300 297 277 228 220 230 235 224 233 215 215 209 204 219 202 201 202 201 201 202 209
274 275 276 277 277 275 268 270 264 257 256 258 251 249 240 229 221 222 224 226 234 246 253 258 269 284 300 298 298 301 278 220 219 226 221 234 231 218 219 215 203 197 194 203 205 206 207 204 206
269 275 279 286 293 282 280 275 274 260 256 255 256 257 244 238 227 228 226 229 234 247 250 249 259 275 294 296 301 302 258 211 215 214 220 277 252 215 219 215 214 195 193 201 203 210 204 206 212
280 278 283 287 296 283 282 280 271 262 260 255 254 252 234 234 236 232 235 232 234 242 235 228 250 266 287 299 303 297 251 210 214 219 215 246 236 210 193 192 195 199 197 203 203 205 207 218 222
299 320 309 302 292 276 327 287 274 248 251 253 248 244 223 230 242 234 238 225 223 242 216 221 243 262 277 293 298 296 239 219 218 224 219 220 238 199 203 200 201 196 203 205 205 210 214 218 222
283 309 305 275 277 278 272 275 305 232 262 264 239 235 222 230 234 226 219 216 218 221 214 214 228 256 270 286 294 297 244 219 209 212 215 226 228 204 209 210 215 202 201 207 213 214 222 223 221
266 301 308 253 273 267 260 229 291 262 273 245 208 213 225 226 227 214 204 215 221 207 208 211 227 248 272 275 281 279 222 216 220 224 225 223 228 220 229 227 221 216 217 211 214 219 226 226 221
266 274 289 218 217 259 278 219 253 280 254 224 208 209 222 226 216 197 212 219 216 207 207 207 223 236 263 260 259 259 210 205 212 220 232 238 234 221 227 222 223 217 232 219 226 231 233 235 230
250 212 225 278 245 311 278 239 230 254 223 235 239 217 213 214 214 204 211 222 226 209 206 209 215 232 250 246 244 240 216 198 203 216 232 246 245 218 223 221 214 225 227 219 229 231 235 242 243
197 209 249 263 269 276 235 250 226 257 266 240 232 235 223 218 212 207 223 221 218 210 199 206 209 226 237 230 239 234 216 194 200 207 225 245 230 214 202 208 217 211 227 229 232 238 247 254 255
231 271 215 207 262 246 254 249 297 281 259 258 255 254 250 232 224 215 225 223 219 204 197 195 197 218 229 219 222 227 220 197 187 192 201 210 200 177 181 200 217 218 225 221 242 243 249 255 257
225 253 281 251 236 280 315 161 32 317 306 273 256 246 241 229 224 223 225 227 221 205 189 186 196 218 224 218 214 216 215 212 200 194 191 172 185 198 192 195 204 218 222 234 247 238 243 249 248
256 257 274 244 276 250 287 281 18 29 349 316 298 256 231 214 214 212 226 226 225 196 186 187 193 212 216 215 214 217 214 209 200 200 203 199 177 165 197 210 213 219 224 229 228 230 236 242 248